This is the latest recevied weather packets stored in our database for station/object N8VDS-10. If no packets are shown the sender has not sent any weather packets the latest 10 day(s).
| Time | Temp. | Humidity | Pressure | Rain* | Wind** | Luminosity | Snow |
|---|---|---|---|---|---|---|---|
| 1777843533 | 16.11° C | 41% | 1011.8 hPa | 0 mm | - | 245 W/m² | - |
| 1777843230 | 16.11° C | 40% | 1011.9 hPa | 0 mm | - | 145 W/m² | - |
| 1777842927 | 16.67° C | 39% | 1011.8 hPa | 0 mm | - | 243 W/m² | - |
| 1777842622 | 16.67° C | 39% | 1011.6 hPa | 0 mm | - | 232 W/m² | - |
| 1777842320 | 16.11° C | 41% | 1011.8 hPa | 0 mm | - | 146 W/m² | - |
| 1777842015 | 16.11° C | 41% | 1011.8 hPa | 0 mm | - | 141 W/m² | - |
| 1777841712 | 16.11° C | 40% | 1011.8 hPa | 0 mm | - | 92 W/m² | - |
| 1777841408 | 16.67° C | 40% | 1011.9 hPa | 0 mm | - | 97 W/m² | - |
| 1777841106 | 16.67° C | 39% | 1011.8 hPa | 0 mm | - | 158 W/m² | - |
| 1777840802 | 16.67° C | 38% | 1012 hPa | 0 mm | - | 186 W/m² | - |
| 1777840500 | 17.78° C | 37% | 1012 hPa | 0 mm | - | 449 W/m² | - |
| 1777840196 | 16.67° C | 38% | 1011.7 hPa | 0 mm | - | 638 W/m² | - |
| 1777839894 | 16.67° C | 38% | 1011.9 hPa | 0 mm | - | 246 W/m² | - |
| 1777839593 | 16.67° C | 37% | 1012 hPa | 0 mm | - | 204 W/m² | - |
| 1777839290 | 17.78° C | 35% | 1011.9 hPa | 0 mm | - | 190 W/m² | - |
| 1777838987 | 17.22° C | 37% | 1012.2 hPa | 0 mm | - | 647 W/m² | - |
| 1777838683 | 16.67° C | 37% | 1011.9 hPa | 0 mm | - | 295 W/m² | - |
| 1777838380 | 17.22° C | 38% | 1012.2 hPa | 0 mm | - | 230 W/m² | - |
| 1777838077 | 16.67° C | 39% | 1012.1 hPa | 0 mm | - | 540 W/m² | - |
| 1777837774 | 17.22° C | 39% | 1012.3 hPa | 0 mm | - | 295 W/m² | - |
| 1777837471 | 16.67° C | 38% | 1012.5 hPa | 0 mm | - | 219 W/m² | - |
| 1777837166 | 16.67° C | 39% | 1012.6 hPa | 0 mm | - | 362 W/m² | - |
| 1777836862 | 17.22° C | 39% | 1012.5 hPa | 0 mm | - | 666 W/m² | - |
| 1777836557 | 16.67° C | 39% | 1012.7 hPa | 0 mm | - | 689 W/m² | - |
| 1777836254 | 16.67° C | 39% | 1012.7 hPa | 0 mm | - | 744 W/m² | - |
* Rain latest hour (hover to see other rain measurements)
** Current wind speed in m/s (hover to see current wind gust speed)